| time (UTC) | temp F | wind direction | speed MPH | gust MPH | rain 1hr in | rain 24hr in | rain mn in | humidity % | barometer mb |
| 20260507174328 | 65 | 113 | 3.0 | 14.0 | 0.00 | 0.00 | 0.00 | 43 | 1010.4 |
| 20260507173828 | 65 | 16 | 2.0 | 12.0 | 0.00 | 0.00 | 0.00 | 45 | 1010.5 |
| 20260507173328 | 65 | 301 | 9.0 | 13.0 | 0.00 | 0.00 | 0.00 | 44 | 1010.6 |
| 20260507171828 | 64 | 10 | 8.0 | 11.0 | 0.00 | 0.00 | 0.00 | 44 | 1010.8 |
| 20260507171328 | 64 | 330 | 2.0 | 12.0 | 0.00 | 0.00 | 0.00 | 46 | 1010.8 |
| 20260507170828 | 64 | 115 | 0.0 | 12.0 | 0.00 | 0.00 | 0.00 | 46 | 1010.9 |
| 20260507170328 | 63 | 219 | 2.0 | 10.0 | 0.00 | 0.00 | 0.00 | 46 | 1010.8 |
| 20260507165858 | 63 | 301 | 1.0 | 11.0 | 0.00 | 0.00 | 0.00 | 45 | 1011.0 |
| 20260507165328 | 63 | 249 | 5.0 | 13.0 | 0.00 | 0.00 | 0.00 | 47 | 1011.1 |
| 20260507164828 | 63 | 51 | 3.0 | 13.0 | 0.00 | 0.00 | 0.00 | 47 | 1011.2 |
| 20260507163828 | 62 | 355 | 2.0 | 10.0 | 0.00 | 0.00 | 0.00 | 50 | 1011.4 |
| 20260507163328 | 61 | 295 | 4.0 | 10.0 | 0.00 | 0.00 | 0.00 | 47 | 1011.3 |
| 20260507162358 | 61 | 215 | 2.0 | 9.0 | 0.00 | 0.00 | 0.00 | 48 | 1011.4 |
| 20260507161828 | 61 | 79 | 4.0 | 11.0 | 0.00 | 0.00 | 0.00 | 45 | 1011.4 |
| 20260507161327 | 62 | 5 | 3.0 | 11.0 | 0.00 | 0.00 | 0.00 | 45 | 1011.6 |
| 20260507160328 | 61 | 200 | 2.0 | 14.0 | 0.00 | 0.00 | 0.00 | 49 | 1011.9 |
| 20260507155827 | 61 | 315 | 10.0 | 14.0 | 0.00 | 0.00 | 0.00 | 48 | 1011.8 |
| 20260507155328 | 61 | 5 | 5.0 | 13.0 | 0.00 | 0.00 | 0.00 | 46 | 1012.1 |
| 20260507154827 | 61 | 59 | 4.0 | 9.0 | 0.00 | 0.00 | 0.00 | 47 | 1012.2 |
| 20260507154327 | 60 | 52 | 7.0 | 10.0 | 0.00 | 0.00 | 0.00 | 48 | 1012.2 |
| 20260507153827 | 60 | 58 | 3.0 | 10.0 | 0.00 | 0.00 | 0.00 | 48 | 1012.1 |
| 20260507153328 | 60 | 40 | 4.0 | 9.0 | 0.00 | 0.00 | 0.00 | 48 | 1012.1 |
| 20260507152827 | 59 | 264 | 3.0 | 9.0 | 0.00 | 0.00 | 0.00 | 47 | 1012.0 |
| 20260507152327 | 59 | 47 | 2.0 | 10.0 | 0.00 | 0.00 | 0.00 | 48 | 1012.2 |
| 20260507151827 | 59 | 80 | 3.0 | 10.0 | 0.00 | 0.00 | 0.00 | 47 | 1012.2 |
| 20260507151327 | 58 | 102 | 3.0 | 11.0 | 0.00 | 0.00 | 0.00 | 52 | 1012.0 |
| 20260507150327 | 58 | 40 | 6.0 | 13.0 | 0.00 | 0.00 | 0.00 | 51 | 1012.3 |
| 20260507145827 | 58 | 46 | 3.0 | 11.0 | 0.00 | 0.00 | 0.00 | 50 | 1012.3 |
| 20260507145327 | 58 | 43 | 2.0 | 11.0 | 0.00 | 0.00 | 0.00 | 53 | 1012.6 |
| 20260507144827 | 58 | 79 | 3.0 | 9.0 | 0.00 | 0.00 | 0.00 | 50 | 1012.7 |
| 20260507144327 | 58 | 52 | 7.0 | 9.0 | 0.00 | 0.00 | 0.00 | 54 | 1012.9 |
| 20260507143827 | 57 | 76 | 2.0 | 8.0 | 0.00 | 0.00 | 0.00 | 55 | 1012.8 |
| 20260507143327 | 57 | 22 | 6.0 | 8.0 | 0.00 | 0.00 | 0.00 | 53 | 1013.0 |
| 20260507142827 | 57 | 347 | 3.0 | 10.0 | 0.00 | 0.00 | 0.00 | 55 | 1013.1 |
| 20260507142327 | 57 | 51 | 6.0 | 10.0 | 0.00 | 0.00 | 0.00 | 54 | 1013.0 |
| 20260507141827 | 57 | 22 | 8.0 | 9.0 | 0.00 | 0.00 | 0.00 | 55 | 1013.2 |
| 20260507141327 | 56 | 272 | 4.0 | 11.0 | 0.00 | 0.00 | 0.00 | 57 | 1013.2 |
| 20260507140327 | 55 | 360 | 4.0 | 6.0 | 0.00 | 0.00 | 0.00 | 59 | 1013.3 |
| 20260507135827 | 55 | 51 | 1.0 | 10.0 | 0.00 | 0.00 | 0.00 | 61 | 1013.4 |
| 20260507135327 | 54 | 68 | 5.0 | 10.0 | 0.00 | 0.00 | 0.00 | 58 | 1013.5 |
| 20260507134827 | 54 | 49 | 4.0 | 10.0 | 0.00 | 0.00 | 0.00 | 60 | 1013.6 |
| 20260507134327 | 54 | 49 | 4.0 | 10.0 | 0.00 | 0.01 | 0.00 | 59 | 1013.6 |
| 20260507133827 | 54 | 321 | 5.0 | 8.0 | 0.00 | 0.01 | 0.00 | 61 | 1013.6 |
| 20260507133327 | 54 | 78 | 2.0 | 7.0 | 0.00 | 0.01 | 0.00 | 62 | 1013.8 |
| 20260507132827 | 54 | 213 | 4.0 | 9.0 | 0.00 | 0.01 | 0.00 | 60 | 1013.8 |
| 20260507131827 | 53 | 65 | 3.0 | 10.0 | 0.00 | 0.01 | 0.00 | 61 | 1013.7 |
| 20260507131327 | 53 | 297 | 3.0 | 6.0 | 0.00 | 0.01 | 0.00 | 63 | 1013.8 |
| 20260507130827 | 53 | 10 | 1.0 | 8.0 | 0.00 | 0.01 | 0.00 | 62 | 1013.7 |
| 20260507130327 | 53 | 321 | 2.0 | 9.0 | 0.00 | 0.01 | 0.00 | 64 | 1013.7 |
| 20260507125827 | 53 | 24 | 4.0 | 9.0 | 0.00 | 0.01 | 0.00 | 64 | 1013.8 |
| 20260507125327 | 53 | 24 | 6.0 | 8.0 | 0.00 | 0.01 | 0.00 | 63 | 1013.9 |
| 20260507124827 | 53 | 43 | 7.0 | 7.0 | 0.00 | 0.02 | 0.00 | 66 | 1013.9 |
| 20260507123827 | 52 | 71 | 5.0 | 5.0 | 0.00 | 0.02 | 0.00 | 65 | 1013.8 |
| 20260507123327 | 52 | 67 | 2.0 | 3.0 | 0.00 | 0.03 | 0.00 | 67 | 1013.8 |
| 20260507122327 | 51 | 355 | 1.0 | 3.0 | 0.00 | 0.04 | 0.00 | 66 | 1013.9 |
| 20260507121827 | 51 | 355 | 1.0 | 3.0 | 0.00 | 0.04 | 0.00 | 66 | 1013.9 |
| 20260507121326 | 51 | 47 | 2.0 | 5.0 | 0.00 | 0.05 | 0.00 | 66 | 1013.8 |
| 20260507120827 | 51 | 28 | 0.0 | 5.0 | 0.00 | 0.05 | 0.00 | 65 | 1013.7 |
| 20260507120326 | 51 | 51 | 4.0 | 5.0 | 0.00 | 0.05 | 0.00 | 66 | 1013.8 |
| 20260507115827 | 51 | 5 | 1.0 | 4.0 | 0.00 | 0.05 | 0.00 | 66 | 1013.7 |
| 20260507115327 | 51 | 38 | 0.0 | 3.0 | 0.00 | 0.05 | 0.00 | 66 | 1013.8 |
| 20260507114827 | 51 | 38 | 1.0 | 3.0 | 0.00 | 0.05 | 0.00 | 66 | 1013.7 |
| 20260507114327 | 51 | 38 | 1.0 | 2.0 | 0.00 | 0.05 | 0.00 | 68 | 1013.7 |
| 20260507113826 | 50 | 47 | 1.0 | 2.0 | 0.00 | 0.06 | 0.00 | 67 | 1013.7 |
| 20260507113326 | 50 | 47 | 1.0 | 2.0 | 0.00 | 0.06 | 0.00 | 66 | 1013.5 |
| 20260507110826 | 50 | 47 | 1.0 | 3.0 | 0.00 | 0.07 | 0.00 | 68 | 1013.2 |
| 20260507110326 | 50 | 47 | 0.0 | 2.0 | 0.00 | 0.07 | 0.00 | 68 | 1013.3 |
| 20260507105826 | 50 | 47 | 0.0 | 5.0 | 0.00 | 0.08 | 0.00 | 66 | 1013.5 |
| 20260507105326 | 50 | 47 | 2.0 | 5.0 | 0.00 | 0.08 | 0.00 | 64 | 1013.3 |
| 20260507104826 | 50 | 34 | 2.0 | 4.0 | 0.00 | 0.08 | 0.00 | 65 | 1013.2 |
| 20260507104326 | 50 | 108 | 1.0 | 3.0 | 0.00 | 0.08 | 0.00 | 65 | 1013.1 |
| 20260507103826 | 51 | 35 | 1.0 | 3.0 | 0.00 | 0.08 | 0.00 | 65 | 1013.0 |
| 20260507103326 | 51 | 5 | 2.0 | 5.0 | 0.00 | 0.08 | 0.00 | 64 | 1013.0 |
| 20260507102326 | 51 | 53 | 3.0 | 5.0 | 0.00 | 0.08 | 0.00 | 65 | 1012.7 |
| 20260507101826 | 51 | 35 | 0.0 | 5.0 | 0.00 | 0.08 | 0.00 | 65 | 1012.7 |
| 20260507100326 | 51 | 58 | 2.0 | 9.0 | 0.00 | 0.08 | 0.00 | 66 | 1012.6 |
| 20260507095826 | 51 | 55 | 3.0 | 9.0 | 0.00 | 0.08 | 0.00 | 66 | 1012.7 |
| 20260507095326 | 51 | 43 | 1.0 | 4.0 | 0.00 | 0.08 | 0.00 | 67 | 1012.7 |
| 20260507094826 | 51 | 55 | 4.0 | 4.0 | 0.00 | 0.08 | 0.00 | 69 | 1012.6 |
| 20260507093827 | 51 | 40 | 3.0 | 4.0 | 0.00 | 0.08 | 0.00 | 69 | 1012.6 |
| 20260507093326 | 51 | 40 | 2.0 | 5.0 | 0.00 | 0.08 | 0.00 | 70 | 1012.5 |
| 20260507092826 | 51 | 60 | 2.0 | 5.0 | 0.00 | 0.08 | 0.00 | 70 | 1012.4 |
| 20260507092326 | 52 | 50 | 2.0 | 5.0 | 0.00 | 0.08 | 0.00 | 73 | 1012.4 |
| 20260507091826 | 52 | 12 | 3.0 | 7.0 | 0.00 | 0.08 | 0.00 | 73 | 1012.4 |
| 20260507091326 | 52 | 68 | 3.0 | 7.0 | 0.00 | 0.08 | 0.00 | 74 | 1012.5 |
| 20260507090826 | 52 | 101 | 0.0 | 5.0 | 0.00 | 0.08 | 0.00 | 77 | 1012.5 |
| 20260507090326 | 52 | 53 | 2.0 | 4.0 | 0.00 | 0.08 | 0.00 | 79 | 1012.5 |
| 20260507085826 | 52 | 36 | 0.0 | 2.0 | 0.00 | 0.08 | 0.00 | 79 | 1012.6 |
| 20260507085326 | 52 | 36 | 1.0 | 3.0 | 0.00 | 0.08 | 0.00 | 79 | 1012.6 |
| 20260507084826 | 52 | 36 | 0.0 | 3.0 | 0.00 | 0.08 | 0.00 | 79 | 1012.6 |
| 20260507084326 | 52 | 29 | 1.0 | 4.0 | 0.00 | 0.08 | 0.00 | 78 | 1012.6 |
| 20260507083326 | 52 | 16 | 0.0 | 4.0 | 0.00 | 0.08 | 0.00 | 78 | 1012.6 |
| 20260507082326 | 52 | 40 | 0.0 | 3.0 | 0.00 | 0.08 | 0.00 | 78 | 1012.3 |
| 20260507081826 | 53 | 40 | 1.0 | 3.0 | 0.00 | 0.08 | 0.00 | 78 | 1012.5 |
| 20260507081326 | 53 | 5 | 0.0 | 2.0 | 0.00 | 0.08 | 0.00 | 78 | 1012.6 |
| 20260507080826 | 53 | 337 | 0.0 | 5.0 | 0.00 | 0.08 | 0.00 | 78 | 1012.5 |
| 20260507080326 | 53 | 337 | 0.0 | 5.0 | 0.00 | 0.08 | 0.00 | 78 | 1012.3 |
| 20260507075826 | 53 | 25 | 1.0 | 4.0 | 0.00 | 0.08 | 0.00 | 77 | 1012.2 |
| 20260507074826 | 53 | 42 | 1.0 | 3.0 | 0.00 | 0.08 | 0.00 | 77 | 1012.0 |
| 20260507074326 | 53 | 5 | 1.0 | 4.0 | 0.00 | 0.08 | 0.00 | 77 | 1012.1 |
| 20260507073826 | 53 | 5 | 1.0 | 4.0 | 0.00 | 0.08 | 0.00 | 77 | 1011.9 |
| 20260507072326 | 53 | 290 | 1.0 | 5.0 | 0.00 | 0.08 | 0.00 | 77 | 1011.8 |
| 20260507071825 | 53 | 12 | 2.0 | 7.0 | 0.00 | 0.08 | 0.00 | 77 | 1011.6 |
| 20260507071326 | 53 | 308 | 3.0 | 7.0 | 0.00 | 0.08 | 0.00 | 76 | 1011.6 |
| 20260507070325 | 53 | 5 | 1.0 | 6.0 | 0.00 | 0.08 | 0.00 | 76 | 1011.7 |
| 20260507065326 | 53 | 9 | 1.0 | 5.0 | 0.00 | 0.08 | 0.00 | 76 | 1011.9 |
| 20260507064826 | 53 | 9 | 4.0 | 5.0 | 0.00 | 0.08 | 0.00 | 76 | 1011.9 |
| 20260507063825 | 53 | 51 | 1.0 | 8.0 | 0.00 | 0.08 | 0.00 | 75 | 1012.0 |
| 20260507063325 | 54 | 336 | 3.0 | 6.0 | 0.00 | 0.08 | 0.00 | 75 | 1012.2 |
| 20260507062825 | 54 | 355 | 1.0 | 4.0 | 0.00 | 0.08 | 0.00 | 75 | 1012.3 |
| 20260507062326 | 54 | 9 | 2.0 | 4.0 | 0.00 | 0.08 | 0.00 | 75 | 1012.3 |
| 20260507061826 | 54 | 38 | 0.0 | 5.0 | 0.00 | 0.08 | 0.00 | 75 | 1012.3 |
| 20260507061325 | 54 | 20 | 3.0 | 5.0 | 0.00 | 0.08 | 0.00 | 75 | 1012.4 |
| 20260507060826 | 54 | 259 | 1.0 | 6.0 | 0.00 | 0.08 | 0.00 | 75 | 1012.4 |
| 20260507060356 | 54 | 338 | 1.0 | 6.0 | 0.00 | 0.08 | 0.00 | 75 | 1012.6 |
| 20260507055825 | 54 | 96 | 3.0 | 5.0 | 0.00 | 0.08 | 0.00 | 75 | 1012.5 |
| 20260507055326 | 54 | 12 | 4.0 | 11.0 | 0.00 | 0.08 | 0.00 | 75 | 1012.5 |
| 20260507054826 | 54 | 60 | 2.0 | 11.0 | 0.00 | 0.08 | 0.00 | 75 | 1012.5 |
| 20260507054325 | 54 | 29 | 4.0 | 9.0 | 0.00 | 0.08 | 0.00 | 75 | 1012.5 |
| 20260507053825 | 54 | 35 | 2.0 | 9.0 | 0.00 | 0.08 | 0.00 | 76 | 1012.4 |
| 20260507053325 | 54 | 21 | 2.0 | 4.0 | 0.00 | 0.08 | 0.00 | 75 | 1012.3 |
| 20260507052825 | 54 | 5 | 2.0 | 5.0 | 0.00 | 0.08 | 0.00 | 75 | 1012.3 |
| 20260507052325 | 54 | 11 | 2.0 | 5.0 | 0.00 | 0.08 | 0.00 | 75 | 1012.2 |
| 20260507051825 | 54 | 49 | 1.0 | 9.0 | 0.00 | 0.08 | 0.00 | 75 | 1012.1 |
| 20260507051325 | 54 | 199 | 4.0 | 9.0 | 0.00 | 0.08 | 0.00 | 75 | 1011.8 |
| 20260507050825 | 54 | 348 | 4.0 | 9.0 | 0.00 | 0.08 | 0.00 | 75 | 1011.7 |
| 20260507045825 | 54 | 355 | 2.0 | 5.0 | 0.00 | 0.08 | 0.00 | 75 | 1011.9 |
| 20260507045325 | 54 | 40 | 2.0 | 8.0 | 0.00 | 0.08 | 0.00 | 75 | 1011.8 |
| 20260507044825 | 54 | 55 | 1.0 | 8.0 | 0.00 | 0.08 | 0.00 | 76 | 1012.0 |
| 20260507043825 | 54 | 38 | 2.0 | 9.0 | 0.00 | 0.08 | 0.00 | 76 | 1011.8 |
| 20260507043325 | 54 | 314 | 1.0 | 8.0 | 0.00 | 0.08 | 0.00 | 76 | 1011.7 |
| 20260507042825 | 54 | 284 | 2.0 | 8.0 | 0.00 | 0.08 | 0.00 | 76 | 1011.8 |
| 20260507042325 | 54 | 96 | 3.0 | 8.0 | 0.00 | 0.08 | 0.00 | 77 | 1011.8 |
| 20260507041825 | 55 | 105 | 2.0 | 8.0 | 0.00 | 0.08 | 0.00 | 78 | 1011.6 |
| 20260507041325 | 55 | 315 | 2.0 | 8.0 | 0.00 | 0.08 | 0.00 | 78 | 1011.6 |
| 20260507040825 | 55 | 15 | 5.0 | 9.0 | 0.00 | 0.08 | 0.00 | 78 | 1011.5 |
| 20260507040325 | 55 | 317 | 0.0 | 9.0 | 0.00 | 0.08 | 0.00 | 79 | 1011.9 |
| 20260507035855 | 55 | 42 | 2.0 | 14.0 | 0.00 | 0.08 | 0.00 | 79 | 1011.8 |
| 20260507034825 | 55 | 5 | 4.0 | 9.0 | 0.00 | 0.08 | 0.08 | 80 | 1012.0 |
| 20260507034325 | 56 | 48 | 4.0 | 9.0 | 0.00 | 0.08 | 0.08 | 80 | 1012.1 |
| 20260507033825 | 56 | 330 | 6.0 | 9.0 | 0.00 | 0.08 | 0.08 | 80 | 1011.8 |
| 20260507033325 | 56 | 26 | 3.0 | 7.0 | 0.00 | 0.08 | 0.08 | 81 | 1011.5 |
| 20260507032825 | 56 | 304 | 4.0 | 6.0 | 0.00 | 0.08 | 0.08 | 81 | 1011.6 |
| 20260507032325 | 56 | 340 | 1.0 | 7.0 | 0.00 | 0.08 | 0.08 | 80 | 1011.7 |
| 20260507031825 | 56 | 11 | 4.0 | 7.0 | 0.00 | 0.08 | 0.08 | 80 | 1011.8 |
| 20260507031325 | 56 | 24 | 3.0 | 9.0 | 0.00 | 0.08 | 0.08 | 80 | 1012.0 |
| 20260507030325 | 56 | 34 | 4.0 | 10.0 | 0.00 | 0.08 | 0.08 | 80 | 1012.0 |
| 20260507025825 | 57 | 24 | 4.0 | 10.0 | 0.00 | 0.08 | 0.08 | 80 | 1011.7 |
| 20260507025325 | 57 | 51 | 4.0 | 8.0 | 0.00 | 0.08 | 0.08 | 79 | 1011.5 |
| 20260507024825 | 57 | 38 | 2.0 | 5.0 | 0.00 | 0.08 | 0.08 | 79 | 1011.9 |
| 20260507024325 | 57 | 13 | 3.0 | 4.0 | 0.00 | 0.08 | 0.08 | 79 | 1011.8 |
| 20260507023825 | 57 | 5 | 2.0 | 4.0 | 0.00 | 0.08 | 0.08 | 79 | 1011.5 |
| 20260507022325 | 57 | 18 | 3.0 | 8.0 | 0.00 | 0.08 | 0.08 | 78 | 1011.4 |
| 20260507021825 | 58 | 36 | 3.0 | 10.0 | 0.00 | 0.08 | 0.08 | 78 | 1011.5 |
| 20260507021325 | 58 | 17 | 1.0 | 10.0 | 0.00 | 0.08 | 0.08 | 78 | 1011.3 |
| 20260507015825 | 58 | 121 | 2.0 | 5.0 | 0.00 | 0.08 | 0.08 | 78 | 1011.1 |
| 20260507015324 | 58 | 161 | 2.0 | 9.0 | 0.00 | 0.08 | 0.08 | 78 | 1011.0 |
| 20260507014825 | 58 | 32 | 3.0 | 9.0 | 0.00 | 0.08 | 0.08 | 77 | 1010.7 |
| 20260507014325 | 58 | 41 | 3.0 | 6.0 | 0.00 | 0.08 | 0.08 | 77 | 1010.6 |
| 20260507013325 | 58 | 355 | 3.0 | 6.0 | 0.00 | 0.08 | 0.08 | 78 | 1010.7 |
| 20260507012825 | 58 | 55 | 3.0 | 6.0 | 0.00 | 0.08 | 0.08 | 78 | 1010.7 |
| 20260507012325 | 59 | 5 | 2.0 | 8.0 | 0.00 | 0.08 | 0.08 | 77 | 1011.0 |
| 20260507011325 | 59 | 51 | 4.0 | 10.0 | 0.00 | 0.08 | 0.08 | 78 | 1010.2 |
| 20260507010825 | 59 | 51 | 4.0 | 15.0 | 0.00 | 0.08 | 0.08 | 77 | 1010.1 |
| 20260507010325 | 59 | 38 | 10.0 | 15.0 | 0.00 | 0.08 | 0.08 | 77 | 1010.1 |
| 20260507005825 | 59 | 207 | 3.0 | 18.0 | 0.00 | 0.08 | 0.08 | 77 | 1009.8 |
| 20260507005325 | 60 | 10 | 5.0 | 18.0 | 0.00 | 0.08 | 0.08 | 78 | 1009.5 |
| 20260507004824 | 60 | 355 | 3.0 | 15.0 | 0.00 | 0.08 | 0.08 | 78 | 1009.8 |
| 20260507004325 | 60 | 360 | 15.0 | 15.0 | 0.00 | 0.08 | 0.08 | 77 | 1010.3 |
| 20260507003324 | 60 | 37 | 5.0 | 14.0 | 0.00 | 0.08 | 0.08 | 78 | 1010.7 |
| 20260507002824 | 61 | 318 | 9.0 | 14.0 | 0.00 | 0.08 | 0.08 | 78 | 1010.4 |
| 20260507002324 | 61 | 307 | 8.0 | 17.0 | 0.00 | 0.08 | 0.08 | 78 | 1010.4 |
| 20260507001825 | 61 | 329 | 10.0 | 17.0 | 0.00 | 0.08 | 0.08 | 78 | 1010.3 |
| 20260507001325 | 61 | 28 | 4.0 | 16.0 | 0.00 | 0.08 | 0.08 | 78 | 1010.2 |
| 20260507000825 | 61 | 17 | 8.0 | 11.0 | 0.00 | 0.08 | 0.08 | 78 | 1010.3 |
| 20260507000325 | 61 | 355 | 4.0 | 11.0 | 0.00 | 0.08 | 0.08 | 78 | 1010.5 |
| 20260506235824 | 61 | 131 | 4.0 | 11.0 | 0.00 | 0.08 | 0.08 | 78 | 1010.5 |
| 20260506235324 | 61 | 360 | 2.0 | 11.0 | 0.00 | 0.08 | 0.08 | 78 | 1010.5 |
| 20260506234324 | 62 | 355 | 5.0 | 18.0 | 0.00 | 0.08 | 0.08 | 78 | 1010.2 |
| 20260506233824 | 62 | 161 | 2.0 | 18.0 | 0.00 | 0.08 | 0.08 | 78 | 1009.8 |
| 20260506233324 | 62 | 238 | 4.0 | 14.0 | 0.00 | 0.08 | 0.08 | 78 | 1009.4 |
| 20260506232824 | 62 | 336 | 9.0 | 17.0 | 0.00 | 0.08 | 0.08 | 80 | 1009.3 |
| 20260506232324 | 62 | 69 | 3.0 | 17.0 | 0.00 | 0.08 | 0.08 | 79 | 1009.4 |
| 20260506231824 | 63 | 51 | 4.0 | 16.0 | 0.00 | 0.08 | 0.08 | 79 | 1009.6 |
| 20260506231324 | 63 | 295 | 5.0 | 15.0 | 0.00 | 0.08 | 0.08 | 80 | 1009.2 |
| 20260506230824 | 63 | 29 | 3.0 | 15.0 | 0.00 | 0.08 | 0.08 | 80 | 1009.1 |
| 20260506230324 | 63 | 360 | 9.0 | 15.0 | 0.00 | 0.08 | 0.08 | 80 | 1009.3 |
| 20260506225824 | 63 | 46 | 4.0 | 15.0 | 0.00 | 0.08 | 0.08 | 80 | 1009.6 |
| 20260506225324 | 64 | 18 | 3.0 | 14.0 | 0.00 | 0.08 | 0.08 | 79 | 1009.3 |
| 20260506224854 | 64 | 38 | 3.0 | 11.0 | 0.00 | 0.08 | 0.08 | 80 | 1009.2 |
| 20260506224324 | 64 | 360 | 5.0 | 11.0 | 0.00 | 0.08 | 0.08 | 79 | 1009.3 |
| 20260506223824 | 64 | 22 | 5.0 | 10.0 | 0.00 | 0.08 | 0.08 | 79 | 1009.5 |
| 20260506222324 | 65 | 15 | 4.0 | 12.0 | 0.00 | 0.08 | 0.08 | 78 | 1009.6 |
| 20260506221824 | 65 | 30 | 3.0 | 11.0 | 0.00 | 0.08 | 0.08 | 78 | 1009.5 |
| 20260506220824 | 66 | 342 | 3.0 | 13.0 | 0.00 | 0.08 | 0.08 | 79 | 1009.3 |
| 20260506220324 | 66 | 314 | 10.0 | 11.0 | 0.00 | 0.08 | 0.08 | 79 | 1009.3 |
| 20260506215824 | 66 | 47 | 5.0 | 11.0 | 0.00 | 0.08 | 0.08 | 78 | 1008.9 |
| 20260506215354 | 67 | 215 | 6.0 | 10.0 | 0.00 | 0.08 | 0.08 | 78 | 1008.8 |
| 20260506214824 | 67 | 74 | 5.0 | 9.0 | 0.00 | 0.08 | 0.08 | 77 | 1008.7 |
| 20260506213824 | 68 | 37 | 6.0 | 10.0 | 0.00 | 0.08 | 0.08 | 77 | 1008.7 |
| 20260506213324 | 68 | 54 | 2.0 | 8.0 | 0.00 | 0.08 | 0.08 | 79 | 1008.6 |
| 20260506212824 | 68 | 21 | 2.0 | 10.0 | 0.00 | 0.08 | 0.08 | 79 | 1008.7 |
| 20260506212324 | 69 | 9 | 4.0 | 10.0 | 0.00 | 0.08 | 0.08 | 77 | 1008.7 |
| 20260506211824 | 69 | 355 | 5.0 | 9.0 | 0.00 | 0.08 | 0.08 | 75 | 1008.4 |
| 20260506211324 | 70 | 327 | 1.0 | 8.0 | 0.00 | 0.08 | 0.08 | 75 | 1008.6 |
| 20260506210824 | 70 | 66 | 2.0 | 4.0 | 0.00 | 0.08 | 0.08 | 75 | 1008.6 |
| 20260506210324 | 70 | 29 | 1.0 | 4.0 | 0.00 | 0.08 | 0.08 | 75 | 1008.4 |
| 20260506205824 | 70 | 15 | 4.0 | 4.0 | 0.00 | 0.08 | 0.08 | 74 | 1008.3 |
| 20260506205324 | 71 | 28 | 2.0 | 6.0 | 0.00 | 0.08 | 0.08 | 74 | 1008.2 |
| 20260506204824 | 71 | 32 | 2.0 | 6.0 | 0.00 | 0.08 | 0.08 | 73 | 1008.1 |
| 20260506204324 | 70 | 22 | 3.0 | 5.0 | 0.00 | 0.08 | 0.08 | 74 | 1008.0 |
| 20260506203824 | 70 | 55 | 0.0 | 5.0 | 0.00 | 0.08 | 0.08 | 74 | 1008.1 |
| 20260506203323 | 70 | 298 | 3.0 | 5.0 | 0.00 | 0.08 | 0.08 | 76 | 1008.0 |
| 20260506202824 | 69 | 32 | 2.0 | 4.0 | 0.00 | 0.08 | 0.08 | 77 | 1007.8 |
| 20260506201824 | 68 | 44 | 0.0 | 3.0 | 0.00 | 0.08 | 0.08 | 77 | 1007.9 |
| 20260506201324 | 68 | 45 | 2.0 | 3.0 | 0.00 | 0.08 | 0.08 | 78 | 1008.1 |
| 20260506200823 | 68 | 40 | 1.0 | 3.0 | 0.00 | 0.08 | 0.08 | 79 | 1007.9 |
| 20260506200323 | 68 | 40 | 2.0 | 3.0 | 0.00 | 0.08 | 0.08 | 79 | 1008.0 |
| 20260506195823 | 67 | 39 | 0.0 | 1.0 | 0.00 | 0.08 | 0.08 | 79 | 1007.9 |
| 20260506195323 | 67 | 39 | 0.0 | 1.0 | 0.00 | 0.08 | 0.08 | 80 | 1007.8 |
| 20260506194824 | 67 | 39 | 0.0 | 2.0 | 0.00 | 0.08 | 0.08 | 79 | 1007.8 |
| 20260506193823 | 67 | 39 | 1.0 | 2.0 | 0.00 | 0.08 | 0.08 | 79 | 1007.9 |
| 20260506193323 | 67 | 39 | 0.0 | 2.0 | 0.00 | 0.08 | 0.08 | 80 | 1007.8 |
| 20260506192823 | 67 | 39 | 1.0 | 2.0 | 0.00 | 0.08 | 0.08 | 79 | 1007.9 |
| 20260506192323 | 67 | 38 | 0.0 | 4.0 | 0.00 | 0.08 | 0.08 | 79 | 1007.9 |
| 20260506191823 | 67 | 38 | 1.0 | 4.0 | 0.00 | 0.08 | 0.08 | 79 | 1007.9 |
| 20260506190823 | 68 | 44 | 1.0 | 4.0 | 0.00 | 0.08 | 0.08 | 79 | 1008.2 |
| 20260506190323 | 68 | 17 | 1.0 | 3.0 | 0.00 | 0.08 | 0.08 | 78 | 1008.3 |
| 20260506185823 | 68 | 330 | 1.0 | 3.0 | 0.00 | 0.08 | 0.08 | 78 | 1008.3 |
| 20260506184823 | 68 | 310 | 1.0 | 4.0 | 0.00 | 0.08 | 0.08 | 78 | 1008.0 |
| 20260506184323 | 68 | 317 | 2.0 | 4.0 | 0.00 | 0.08 | 0.08 | 78 | 1008.1 |
| 20260506183823 | 68 | 33 | 0.0 | 3.0 | 0.00 | 0.08 | 0.08 | 79 | 1008.1 |
| 20260506183323 | 68 | 34 | 2.0 | 3.0 | 0.00 | 0.08 | 0.08 | 79 | 1008.1 |
| 20260506182823 | 67 | 9 | 1.0 | 4.0 | 0.00 | 0.08 | 0.08 | 79 | 1008.1 |
| 20260506182323 | 67 | 269 | 2.0 | 6.0 | 0.00 | 0.08 | 0.08 | 78 | 1008.1 |
| 20260506181323 | 67 | 254 | 2.0 | 5.0 | 0.00 | 0.08 | 0.08 | 78 | 1008.1 |
| 20260506180323 | 67 | 216 | 5.0 | 8.0 | 0.00 | 0.08 | 0.08 | 77 | 1008.0 |
| 20260506175823 | 67 | 239 | 4.0 | 10.0 | 0.00 | 0.08 | 0.08 | 77 | 1008.1 |
| 20260506175323 | 67 | 262 | 7.0 | 10.0 | 0.00 | 0.08 | 0.08 | 77 | 1008.1 |
| 20260506174823 | 67 | 240 | 4.0 | 11.0 | 0.00 | 0.08 | 0.08 | 77 | 1008.1 |